| time (UTC) | temp C | wind direction | speed KPH | gust KPH | rain 1hr cm | rain 24hr cm | rain mn cm | humidity % | barometer mb |
| 20260506124114 | 22 | 180 | 9.7 | 14.5 | 0.00 | 0.00 | 0.00 | 33 | 1006.1 |
| 20260506123114 | 22 | 135 | 9.7 | 4.8 | 0.00 | 0.00 | 0.00 | 34 | 1006.1 |
| 20260506121114 | 22 | 112 | 8.0 | 12.9 | 0.00 | 0.00 | 0.00 | 34 | 1005.8 |
| 20260506114113 | 22 | 112 | 9.7 | 12.9 | 0.00 | 0.00 | 0.00 | 34 | 1006.8 |
| 20260506113114 | 22 | 157 | 8.0 | 11.3 | 0.00 | 0.00 | 0.00 | 35 | 1006.8 |
| 20260506112114 | 22 | 90 | 6.4 | 9.7 | 0.00 | 0.00 | 0.00 | 34 | 1007.0 |
| 20260506111113 | 21 | 90 | 3.2 | 8.0 | 0.00 | 0.00 | 0.00 | 36 | 1007.0 |
| 20260506104113 | 20 | 135 | 4.8 | 8.0 | 0.00 | 0.00 | 0.00 | 37 | 1007.4 |
| 20260506103113 | 21 | 225 | 4.8 | 4.8 | 0.00 | 0.00 | 0.00 | 38 | 1007.4 |
| 20260506102113 | 20 | 225 | 4.8 | 8.0 | 0.00 | 0.00 | 0.00 | 38 | 1007.4 |
| 20260506100113 | 20 | 292 | 3.2 | 4.8 | 0.00 | 0.00 | 0.00 | 40 | 1007.4 |
| 20260506095114 | 19 | 202 | 3.2 | 3.2 | 0.00 | 0.00 | 0.00 | 44 | 1007.4 |
| 20260506094113 | 18 | 202 | 3.2 | 8.0 | 0.00 | 0.00 | 0.00 | 44 | 1007.7 |
| 20260506092113 | 17 | 247 | 1.6 | 3.2 | 0.00 | 0.00 | 0.00 | 46 | 1007.6 |
| 20260506091112 | 16 | 135 | 1.6 | 1.6 | 0.00 | 0.00 | 0.00 | 47 | 1007.6 |
| 20260506084112 | 15 | 135 | 1.6 | 3.2 | 0.00 | 0.00 | 0.00 | 48 | 1008.0 |
| 20260506083112 | 14 | 225 | 1.6 | 0.0 | 0.00 | 0.00 | 0.00 | 48 | 1008.0 |
| 20260506082112 | 13 | 112 | 3.2 | 3.2 | 0.00 | 0.00 | 0.00 | 49 | 1008.1 |
| 20260506080112 | 13 | 157 | 3.2 | 3.2 | 0.00 | 0.00 | 0.00 | 49 | 1008.3 |
| 20260506073112 | 13 | 112 | 1.6 | 3.2 | 0.00 | 0.00 | 0.00 | 50 | 1008.6 |
| 20260506072112 | 12 | 180 | 0.0 | 3.2 | 0.00 | 0.00 | 0.00 | 52 | 1009.4 |
| 20260506071112 | 12 | 225 | 0.0 | 0.0 | 0.00 | 0.00 | 0.00 | 51 | 1009.4 |
| 20260506070112 | 12 | 180 | 0.0 | 0.0 | 0.00 | 0.00 | 0.00 | 51 | 1009.2 |
| 20260506062111 | 8 | 135 | 0.0 | 0.0 | 0.00 | 0.00 | 0.00 | 59 | 1010.1 |
| 20260506061111 | 8 | 45 | 1.6 | 0.0 | 0.00 | 0.00 | 0.00 | 59 | 1010.1 |
| 20260506060111 | 7 | 247 | 1.6 | 3.2 | 0.00 | 0.00 | 0.00 | 60 | 1009.8 |
| 20260506051111 | 6 | 90 | 0.0 | 0.0 | 0.00 | 0.00 | 0.00 | 60 | 1010.8 |
| 20260506050111 | 6 | 157 | 0.0 | 0.0 | 0.00 | 0.00 | 0.00 | 60 | 1010.7 |
| 20260506044112 | 5 | 157 | 1.6 | 0.0 | 0.00 | 0.00 | 0.00 | 57 | 1010.0 |
| 20260506043110 | 5 | 90 | 0.0 | 0.0 | 0.00 | 0.00 | 0.00 | 58 | 1010.0 |
| 20260506042110 | 5 | 157 | 0.0 | 0.0 | 0.00 | 0.00 | 0.00 | 58 | 1009.9 |
| 20260506041111 | 5 | 360 | 0.0 | 0.0 | 0.00 | 0.00 | 0.00 | 58 | 1009.9 |
| 20260506040110 | 5 | 202 | 0.0 | 0.0 | 0.00 | 0.00 | 0.00 | 57 | 1010.1 |
| 20260506035111 | 5 | 90 | 0.0 | 0.0 | 0.00 | 0.00 | 0.00 | 58 | 1010.1 |
| 20260506034113 | 5 | 157 | 0.0 | 0.0 | 0.00 | 0.00 | 0.00 | 56 | 1011.1 |
| 20260506033113 | 5 | 180 | 0.0 | 0.0 | 0.00 | 0.00 | 0.00 | 56 | 1011.1 |
| 20260506032113 | 5 | 202 | 0.0 | 0.0 | 0.00 | 0.00 | 0.00 | 57 | 1010.5 |
| 20260506031113 | 6 | 157 | 1.6 | 0.0 | 0.00 | 0.00 | 0.00 | 56 | 1010.5 |
| 20260506030112 | 6 | 67 | 1.6 | 3.2 | 0.00 | 0.00 | 0.00 | 55 | 1010.5 |
| 20260506025112 | 6 | 202 | 0.0 | 0.0 | 0.00 | 0.00 | 0.00 | 56 | 1010.5 |
| 20260506024112 | 6 | 202 | 0.0 | 0.0 | 0.00 | 0.00 | 0.00 | 54 | 1010.6 |
| 20260506023112 | 6 | 45 | 0.0 | 0.0 | 0.00 | 0.00 | 0.00 | 55 | 1010.6 |
| 20260506022112 | 6 | 157 | 0.0 | 0.0 | 0.00 | 0.00 | 0.00 | 54 | 1011.0 |
| 20260506020113 | 6 | 202 | 0.0 | 0.0 | 0.00 | 0.00 | 0.00 | 54 | 1010.8 |
| 20260506015112 | 6 | 315 | 0.0 | 0.0 | 0.00 | 0.00 | 0.00 | 54 | 1010.8 |
| 20260506014112 | 6 | 360 | 0.0 | 0.0 | 0.00 | 0.00 | 0.00 | 54 | 1010.5 |
| 20260506013112 | 7 | 360 | 0.0 | 0.0 | 0.00 | 0.00 | 0.00 | 53 | 1010.5 |
| 20260506012113 | 7 | 45 | 0.0 | 1.6 | 0.00 | 0.00 | 0.00 | 53 | 1011.1 |
| 20260506011112 | 7 | 135 | 0.0 | 0.0 | 0.00 | 0.00 | 0.00 | 53 | 1011.1 |
| 20260506010112 | 7 | 202 | 0.0 | 0.0 | 0.00 | 0.00 | 0.00 | 53 | 1010.4 |
| 20260506005111 | 7 | 67 | 1.6 | 1.6 | 0.00 | 0.00 | 0.00 | 53 | 1010.4 |
| 20260506004111 | 7 | 360 | 0.0 | 0.0 | 0.00 | 0.00 | 0.00 | 53 | 1010.4 |
| 20260506003112 | 7 | 202 | 0.0 | 0.0 | 0.00 | 0.00 | 0.00 | 53 | 1010.4 |
| 20260506002112 | 7 | 292 | 1.6 | 1.6 | 0.00 | 0.00 | 0.00 | 54 | 1010.4 |
| 20260506001112 | 7 | 112 | 0.0 | 3.2 | 0.00 | 0.00 | 0.00 | 51 | 1010.4 |
| 20260506000111 | 7 | 135 | 0.0 | 0.0 | 0.00 | 0.00 | 0.00 | 51 | 1010.6 |
| 20260505235111 | 7 | 67 | 1.6 | 3.2 | 0.00 | 0.00 | 0.00 | 50 | 1010.6 |
| 20260505234111 | 7 | 180 | 0.0 | 0.0 | 0.00 | 0.00 | 0.00 | 50 | 1010.8 |
| 20260505233112 | 8 | 292 | 1.6 | 0.0 | 0.00 | 0.00 | 0.00 | 50 | 1010.8 |
| 20260505232111 | 8 | 67 | 0.0 | 0.0 | 0.00 | 0.00 | 0.00 | 49 | 1010.4 |
| 20260505231111 | 8 | 67 | 0.0 | 0.0 | 0.00 | 0.00 | 0.00 | 50 | 1010.4 |
| 20260505225110 | 8 | 157 | 1.6 | 0.0 | 0.00 | 0.00 | 0.00 | 48 | 1010.2 |
| 20260505224110 | 9 | 90 | 0.0 | 0.0 | 0.00 | 0.00 | 0.00 | 48 | 1010.2 |
| 20260505223110 | 9 | 135 | 0.0 | 0.0 | 0.00 | 0.00 | 0.00 | 48 | 1010.2 |
| 20260505222110 | 9 | 225 | 0.0 | 0.0 | 0.00 | 0.00 | 0.00 | 48 | 1010.1 |
| 20260505221110 | 10 | 202 | 1.6 | 0.0 | 0.00 | 0.00 | 0.00 | 47 | 1010.1 |
| 20260505220114 | 10 | 157 | 0.0 | 0.0 | 0.00 | 0.00 | 0.00 | 46 | 1010.0 |
| 20260505214114 | 10 | 90 | 0.0 | 0.0 | 0.00 | 0.00 | 0.00 | 46 | 1010.0 |
| 20260505212113 | 11 | 202 | 0.0 | 0.0 | 0.00 | 0.00 | 0.00 | 45 | 1009.9 |
| 20260505211113 | 11 | 292 | 1.6 | 0.0 | 0.00 | 0.00 | 0.00 | 44 | 1009.9 |
| 20260505210114 | 11 | 202 | 0.0 | 0.0 | 0.00 | 0.00 | 0.00 | 43 | 1009.5 |
| 20260505204113 | 12 | 67 | 1.6 | 0.0 | 0.00 | 0.00 | 0.00 | 42 | 1009.3 |
| 20260505203115 | 12 | 157 | 0.0 | 1.6 | 0.00 | 0.00 | 0.00 | 42 | 1009.3 |
| 20260505202113 | 12 | 90 | 0.0 | 0.0 | 0.00 | 0.00 | 0.00 | 42 | 1009.1 |
| 20260505201113 | 13 | 202 | 0.0 | 0.0 | 0.00 | 0.00 | 0.00 | 41 | 1009.1 |
| 20260505200113 | 13 | 315 | 0.0 | 0.0 | 0.00 | 0.00 | 0.00 | 40 | 1008.7 |
| 20260505195113 | 13 | 157 | 0.0 | 0.0 | 0.00 | 0.00 | 0.00 | 39 | 1008.7 |
| 20260505194113 | 14 | 90 | 1.6 | 1.6 | 0.00 | 0.00 | 0.00 | 38 | 1008.4 |
| 20260505193113 | 15 | 90 | 0.0 | 0.0 | 0.00 | 0.00 | 0.00 | 38 | 1008.4 |
| 20260505192113 | 15 | 202 | 0.0 | 0.0 | 0.00 | 0.00 | 0.00 | 37 | 1008.2 |
| 20260505190113 | 16 | 202 | 0.0 | 0.0 | 0.00 | 0.00 | 0.00 | 35 | 1008.0 |
| 20260505185112 | 16 | 247 | 1.6 | 0.0 | 0.00 | 0.00 | 0.00 | 34 | 1008.0 |
| 20260505183113 | 17 | 90 | 3.2 | 4.8 | 0.00 | 0.00 | 0.00 | 32 | 1007.8 |
| 20260505182112 | 18 | 135 | 3.2 | 4.8 | 0.00 | 0.00 | 0.00 | 32 | 1007.8 |
| 20260505181113 | 18 | 112 | 3.2 | 3.2 | 0.00 | 0.00 | 0.00 | 32 | 1007.8 |
| 20260505180112 | 19 | 135 | 1.6 | 3.2 | 0.00 | 0.00 | 0.00 | 32 | 1007.6 |
| 20260505175112 | 19 | 247 | 3.2 | 3.2 | 0.00 | 0.00 | 0.00 | 32 | 1007.6 |
| 20260505173113 | 20 | 157 | 3.2 | 6.4 | 0.00 | 0.00 | 0.00 | 32 | 1007.6 |
| 20260505172113 | 20 | 157 | 4.8 | 3.2 | 0.00 | 0.00 | 0.00 | 33 | 1007.6 |
| 20260505171112 | 20 | 247 | 1.6 | 4.8 | 0.00 | 0.00 | 0.00 | 33 | 1007.6 |
| 20260505170112 | 20 | 360 | 3.2 | 0.0 | 0.00 | 0.00 | 0.00 | 32 | 1007.6 |
| 20260505165112 | 21 | 135 | 4.8 | 8.0 | 0.00 | 0.00 | 0.00 | 32 | 1007.6 |
| 20260505164112 | 21 | 67 | 4.8 | 8.0 | 0.00 | 0.00 | 0.00 | 33 | 1008.2 |
| 20260505163112 | 21 | 112 | 4.8 | 6.4 | 0.00 | 0.00 | 0.00 | 32 | 1008.2 |
| 20260505162112 | 20 | 67 | 6.4 | 6.4 | 0.00 | 0.00 | 0.00 | 33 | 1008.2 |
| 20260505161113 | 20 | 90 | 4.8 | 6.4 | 0.00 | 0.00 | 0.00 | 33 | 1008.2 |
| 20260505160112 | 20 | 90 | 4.8 | 6.4 | 0.00 | 0.00 | 0.00 | 33 | 1008.3 |
| 20260505153113 | 20 | 90 | 4.8 | 3.2 | 0.00 | 0.00 | 0.00 | 33 | 1008.4 |
| 20260505152113 | 20 | 67 | 4.8 | 3.2 | 0.00 | 0.00 | 0.00 | 34 | 1008.6 |
| 20260505151113 | 20 | 135 | 3.2 | 6.4 | 0.00 | 0.00 | 0.00 | 33 | 1008.6 |
| 20260505150111 | 20 | 292 | 3.2 | 3.2 | 0.00 | 0.00 | 0.00 | 32 | 1008.1 |
| 20260505140111 | 22 | 180 | 4.8 | 9.7 | 0.00 | 0.00 | 0.00 | 31 | 1007.9 |
| 20260505130110 | 23 | 135 | 4.8 | 6.4 | 0.00 | 0.00 | 0.00 | 31 | 1008.1 |